sat.trackr.live / text

‹ back to catalog

STARLINK-5004

NORAD 53923 · 2022-119AP

PAYLOAD ACTIVE UNKNOWN

§ Identity

Operator
Country
US
Launch date
2022-09-24
Launch site
AFETR
Launch vehicle
Mass (kg)
RCS (m²)

Purposes: comms

External: N2YO · Heavens-Above · Gunter

§ Orbital elements

Epoch: 2026-09-20T05:06:03.091392Z

Period
95.44 min
Inclination
53.1602°
Eccentricity
0.0001462
Mean motion
15.08831941 rev/d
Perigee alt
538.8 km
Apogee alt
540.8 km
Semi-major
6,917.9 km
B*
1.7147e-5
RAAN
160.0391°
Arg perigee
85.5188°
Mean anomaly
274.5970°
Rev number
22,119

§ Raw data

STARLINK-50041 53923U 22119AP  26263.21253578 -.00000015  00000+0  17147-4 0  99992 53923  53.1602 160.0391 0001462  85.5188 274.5970 15.08831941221198

JSON: /api/v1/satellites/53923 · /tle

For live sub-satellite position, see the globe view (requires WebGL).

§ Visibility from observer

Set your observer location to see the next 7 days of passes ≥ 10°. The values pass through the URL so the page stays shareable.

No JS? Fill the form by hand. The geolocation button needs JavaScript.